[[{"header":{"parameterUnit":"m.s-1","parameterCategory":1,"la1":30.2991,"la2":30.254,"lo1":-89.0895,"lo2":-89.0444,"dy":0.0017,"dx":0.0017,"nx":28,"ny":28,"refTime":"2024-05-11T09:00:00:Z","depth":0,"parameterNumber":2,"parameterNumberName":"U-component_of_WINDS"},"data":[0,0,0,0,0,0,0,0,0,0,0,0,0,0,0,0,0,0,0,0,0,0,0,0,0,0,0,0,0,0,0,0,0,0,0,0,0,0,0,0,0,0,0,0,0,0,0,0,0,0,0,0,0,0,0,0,0,0,-6.1209,-6.1209,0,-6.1227,-6.1227,-6.1227,-6.1148,-6.1146,-6.1144,-6.1141,-6.1158,-6.116,-6.1163,0,0,0,0,0,0,0,0,0,0,0,0,0,-6.1105,-6.1108,-6.1209,-6.1209,-6.1209,-6.1227,-6.1227,-6.1227,-6.1149,-6.1146,-6.1143,-6.114,-6.1157,-6.116,-6.1163,0,0,0,0,0,0,0,0,0,0,0,0,0,-6.1139,-6.1108,-6.1209,-6.1172,-6.1169,-6.1226,-6.1227,-6.1227,-6.1149,-6.1146,-6.1142,-6.1139,-6.1156,-6.116,-6.1163,-6.1256,0,0,-6.1175,-6.1177,0,0,0,0,0,0,0,0,-6.1138,-6.1143,-6.1177,-6.1175,-6.1171,-6.1182,-6.1196,-6.1237,-6.115,-6.1157,-6.1141,-6.1137,-6.1168,-6.1171,-6.1182,-6.1257,-6.1258,-6.1176,-6.1178,-6.118,-6.1181,0,0,0,0,0,0,0,-6.1135,-6.1142,-6.1216,-6.1178,-6.1174,-6.1154,-6.1155,-6.1204,-6.1181,-6.1156,-6.115,-6.1153,-6.1166,-6.1178,-6.1182,-6.1258,-6.1175,-6.1179,-6.1181,-6.1183,-6.141,-6.1413,0,0,0,0,0,0,-6.1138,-6.1141,-6.1215,-6.1216,-6.1146,-6.1159,-6.116,-6.1182,-6.1181,-6.1177,-6.1156,-6.115,-6.1173,-6.1177,-6.1182,-6.1289,-6.1179,-6.1183,-6.1185,-6.1406,-6.1411,-6.1415,0,0,0,0,0,0,-6.1136,-6.1145,-6.1214,-6.1177,-6.1184,-6.1165,-6.1189,-6.1184,-6.1196,-6.1181,-6.1177,-6.1173,-6.1171,-6.1176,-6.1238,-6.1289,-6.1185,-6.1188,-6.1402,-6.1408,-6.1413,-6.1506,0,0,0,0,0,0,-6.1134,-6.1145,-6.118,-6.1178,-6.1187,-6.1271,-6.1193,-6.1187,-6.1203,-6.1195,-6.1196,-6.1192,-6.1169,-6.1233,-6.1242,-6.1292,-6.1191,-6.1397,-6.1404,-6.1411,-6.1498,-6.1514,-6.1528,0,0,0,0,0,-6.113,-6.1205,-6.1182,-6.1192,-6.123,-6.1274,-6.1279,-6.125,-6.1208,-6.1242,-6.1233,-6.1192,-6.1283,-6.124,-6.125,-6.1302,-6.1394,-6.1402,-6.141,-6.1492,-6.1511,-6.1527,0,0,0,0,0,0,-6.1212,-6.1204,-6.1179,-6.1256,-6.1267,-6.1261,-6.1303,-6.1272,-6.1294,-6.1285,-6.1248,-6.1249,-6.1317,-6.1316,-6.1269,-6.1392,-6.1331,-6.1341,-6.1389,-6.1407,-6.1422,-6.1419,-6.1195,0,0,0,0,0,-6.124,-6.1277,-6.1268,-6.1337,-6.1343,-6.1323,-6.1341,-6.1319,-6.1328,-6.1331,-6.1326,-6.1336,-6.1367,-6.1387,-6.1415,-6.1499,-6.1497,-6.154,-6.1554,-6.1567,-6.1575,-6.1619,-6.1637,-6.1442,-6.1442,-6.1442,0,0,-6.1296,-6.1297,-6.1322,-6.1353,-6.1359,-6.1397,-6.1327,-6.1371,-6.1399,-6.1338,-6.1395,-6.1393,-6.1402,-6.1475,-6.1507,-6.1476,-6.163,-6.1577,-6.1587,-6.1589,-6.163,-6.1648,-6.1665,-6.1448,-6.1447,-6.1446,0,0,-6.1418,-6.1423,-6.148,-6.1488,-6.1498,-6.1484,-6.1498,-6.1498,-6.1494,-6.1552,-6.1507,-6.154,-6.1594,-6.1601,-6.1612,-6.174,-6.1703,-6.1751,-6.1826,-6.1869,-6.1884,-6.1898,-6.1942,-6.1958,-6.176,-6.176,-6.176,0,-6.1486,-6.1543,-6.1514,-6.1561,-6.1576,-6.1524,-6.1582,-6.1591,-6.1609,-6.162,-6.1586,-6.1652,-6.1654,-6.1728,-6.176,-6.1771,-6.1785,-6.1748,-6.1885,-6.1898,-6.191,-6.1952,-6.1968,-6.1766,-6.1765,-6.1764,-6.1764,0,-6.1626,-6.1666,-6.1712,-6.1731,-6.1752,-6.1804,-6.1782,-6.1807,-6.1783,-6.1773,-6.1833,-6.1835,-6.1861,-6.1878,-6.1855,-6.1949,-6.193,-6.1891,-6.1829,-6.1935,-6.1973,-6.1989,-6.1774,-6.1772,-6.177,-6.1769,0,0,-6.1797,-6.1802,-6.1819,-6.1827,-6.1835,-6.1865,-6.1916,-6.1943,-6.1964,-6.1979,-6.2019,-6.2067,-6.2031,-6.2044,-6.2022,-6.2061,-6.216,-6.2017,-6.2017,-6.2042,-6.2263,-6.229,-6.2309,-6.2138,-6.214,-6.2143,-6.2262,0,-6.1915,-6.2001,-6.1977,-6.2063,-6.2099,-6.2052,-6.2096,-6.2106,-6.2099,-6.2128,-6.212,-6.2154,-6.2105,-6.2113,-6.2149,-6.2141,-6.2204,-6.2132,-6.2173,-6.2175,-6.217,-6.2329,-6.2358,-6.247,-6.2277,-6.2279,-6.2281,0,-6.2063,-6.2085,-6.2175,-6.2177,-6.2192,-6.2231,-6.2254,-6.2284,-6.2294,-6.2286,-6.2302,-6.2273,-6.2322,-6.2262,-6.2329,-6.2281,-6.2297,-6.2296,-6.2299,-6.23,-6.2232,-6.2332,-6.2505,-6.2521,-6.2305,-6.2303,-6.2301,0,-6.2176,-6.2229,-6.2289,-6.2298,-6.2303,-6.2332,-6.2335,-6.2342,-6.2361,-6.2381,-6.2392,-6.2419,-6.2432,-6.2453,-6.2432,-6.239,-6.2502,-6.244,-6.2495,-6.2496,-6.2518,-6.2516,-6.2693,-6.2533,-6.2533,-6.2532,-6.2532,0,-6.2309,-6.2365,-6.234,-6.2376,-6.2438,-6.2411,-6.2473,-6.2471,-6.2478,-6.2513,-6.2475,-6.2509,-6.248,-6.2512,-6.2496,-6.2553,-6.256,-6.2554,-6.2548,-6.2556,-6.2556,-6.2563,-6.2554,-6.2537,-6.2536,-6.2535,-6.2534,0,-6.2444,-6.243,-6.2492,-6.2493,-6.2495,-6.254,-6.254,-6.2574,-6.2565,-6.2611,-6.262,-6.2606,-6.2641,-6.2623,-6.2659,-6.2648,-6.2721,-6.2707,-6.2718,-6.2713,-6.2768,-6.2762,-6.2954,-6.2977,-6.2804,-6.2806,-6.2808,0,-6.2528,-6.257,-6.2576,-6.2598,-6.2604,-6.2639,-6.2658,-6.2634,-6.2654,-6.2671,-6.2702,-6.2735,-6.2758,-6.2817,-6.281,-6.2837,-6.2821,-6.2887,-6.2825,-6.2831,-6.282,-6.2816,-6.282,-6.2898,-6.29,-6.2902,-6.2903,0,-6.2678,-6.2669,-6.2698,-6.2725,-6.2749,-6.2769,-6.2785,-6.2805,-6.2781,-6.2807,-6.2842,-6.2861,-6.2899,-6.2931,-6.2956,-6.2958,-6.2927,-6.2923,-6.2937,-6.2943,-6.2947,-6.2944,-6.2749,-6.2918,-6.2917,-6.2915,-6.2915,-6.2914,-6.2788,-6.2824,-6.2834,-6.2867,-6.2878,-6.2895,-6.2926,-6.2923,-6.2952,-6.2981,-6.2966,-6.3008,-6.3018,-6.3047,-6.3055,-6.3087,-6.3061,-6.3081,-6.3086,-6.3091,-6.3097,-6.2945,-6.3092,-6.3091,-6.3091,-6.3091,-6.309,0,-6.2934,-6.2939,-6.2971,-6.2996,-6.3022,-6.2993,-6.301,-6.3033,-6.3071,-6.3084,-6.3109,-6.315,-6.3182,-6.3178,-6.3207,-6.3233,-6.3219,-6.3241,-6.3238,-6.3239,-6.312,-6.3104,-6.3252,-6.3252,-6.3252,-6.3252,-6.3252,-6.3252,-6.3013,-6.3071,-6.3064,-6.3127,-6.3132,-6.3173,-6.3185,-6.32,-6.321,-6.3258,-6.3285,-6.3283,-6.3289,-6.3318,-6.3346,-6.3344,-6.3355,-6.3382,-6.3375,-6.3263,-6.3247,-6.3232,-6.3216,-6.3385,-6.3386,-6.349,-6.3491,-6.3492]},{"header":{"parameterUnit":"m.s-1","parameterCategory":1,"la1":30.2991,"la2":30.254,"lo1":-89.0895,"lo2":-89.0444,"dy":0.0017,"dx":0.0017,"nx":28,"ny":28,"refTime":"2024-05-11T09:00:00:Z","depth":0,"parameterNumber":3,"parameterNumberName":"V-component_of_WINDS"},"data":[0,0,0,0,0,0,0,0,0,0,0,0,0,0,0,0,0,0,0,0,0,0,0,0,0,0,0,0,0,0,0,0,0,0,0,0,0,0,0,0,0,0,0,0,0,0,0,0,0,0,0,0,0,0,0,0,0,0,1.2525,1.2525,0,1.253,1.253,1.253,1.2546,1.2546,1.2546,1.2547,1.2549,1.2549,1.2549,0,0,0,0,0,0,0,0,0,0,0,0,0,1.2527,1.2527,1.2525,1.2525,1.2525,1.253,1.253,1.253,1.2546,1.2546,1.2547,1.2547,1.2549,1.2549,1.2549,0,0,0,0,0,0,0,0,0,0,0,0,0,1.2529,1.2527,1.2525,1.2533,1.2534,1.253,1.253,1.253,1.2546,1.2546,1.2547,1.2547,1.255,1.2549,1.2549,1.2536,0,0,1.2548,1.2547,0,0,0,0,0,0,0,0,1.2529,1.2529,1.2532,1.2533,1.2534,1.2538,1.2532,1.2532,1.2545,1.2541,1.2547,1.2547,1.2545,1.2545,1.2545,1.2536,1.2536,1.2548,1.2547,1.2547,1.2547,0,0,0,0,0,0,0,1.2528,1.2528,1.2527,1.2532,1.2533,1.2537,1.2537,1.2532,1.254,1.2542,1.2543,1.2543,1.2545,1.2545,1.2545,1.2536,1.2548,1.2547,1.2547,1.2547,1.2518,1.2517,0,0,0,0,0,0,1.2527,1.2528,1.2527,1.2527,1.2533,1.2536,1.2537,1.2536,1.254,1.2541,1.2543,1.2544,1.2545,1.2545,1.2545,1.253,1.2547,1.2547,1.2547,1.2518,1.2517,1.2517,0,0,0,0,0,0,1.2527,1.2527,1.2526,1.2528,1.2528,1.2536,1.2534,1.2536,1.2535,1.2541,1.2542,1.2541,1.2546,1.2545,1.2538,1.2531,1.2547,1.2546,1.2519,1.2518,1.2517,1.2501,0,0,0,0,0,0,1.2527,1.2527,1.2522,1.2528,1.2528,1.252,1.2534,1.2535,1.2535,1.2536,1.254,1.2541,1.2546,1.2539,1.2538,1.253,1.2546,1.2519,1.2518,1.2517,1.2502,1.2499,1.2497,0,0,0,0,0,1.2527,1.2517,1.2522,1.2522,1.2522,1.252,1.252,1.2527,1.2534,1.2529,1.2533,1.254,1.2532,1.2538,1.2537,1.2529,1.252,1.2519,1.2517,1.2503,1.25,1.2497,0,0,0,0,0,0,1.2509,1.2518,1.2523,1.2514,1.2516,1.2522,1.2516,1.2523,1.2523,1.2524,1.2532,1.2533,1.2525,1.2526,1.2533,1.2517,1.2527,1.2526,1.2516,1.2514,1.2511,1.2511,1.2546,0,0,0,0,0,1.2504,1.2502,1.2509,1.25,1.2501,1.2509,1.2508,1.2513,1.2515,1.2516,1.2519,1.252,1.2518,1.2516,1.2514,1.2503,1.2504,1.2497,1.2495,1.2493,1.2491,1.2486,1.2483,1.2513,1.2513,1.2513,0,0,1.2494,1.2498,1.2496,1.2497,1.2499,1.2496,1.2509,1.2505,1.2503,1.2515,1.2509,1.2511,1.2513,1.2504,1.25,1.2505,1.2483,1.2491,1.249,1.2489,1.2484,1.2482,1.2479,1.2512,1.2512,1.2512,0,0,1.2473,1.2476,1.247,1.2472,1.2475,1.2481,1.2479,1.2484,1.2487,1.2481,1.249,1.2487,1.2483,1.2484,1.2484,1.2465,1.2472,1.2464,1.2452,1.2447,1.2444,1.2442,1.2436,1.2433,1.2463,1.2463,1.2463,0,1.2459,1.2456,1.2465,1.2461,1.2461,1.2473,1.2467,1.2468,1.247,1.247,1.2476,1.2472,1.2473,1.2465,1.2461,1.246,1.2459,1.2463,1.2444,1.2442,1.244,1.2434,1.2432,1.2462,1.2462,1.2462,1.2462,0,1.2439,1.2436,1.243,1.2433,1.2433,1.2427,1.2436,1.2434,1.244,1.2445,1.2439,1.2442,1.2441,1.244,1.2445,1.2432,1.2436,1.2443,1.2452,1.2436,1.2431,1.2428,1.246,1.2461,1.2461,1.2461,0,0,1.2405,1.2415,1.2413,1.2415,1.242,1.2418,1.2413,1.2414,1.2412,1.2414,1.241,1.2406,1.2413,1.2413,1.2419,1.2414,1.24,1.2422,1.2422,1.2418,1.2386,1.2381,1.2378,1.2405,1.2404,1.2404,1.2386,0,1.2386,1.2379,1.2388,1.2379,1.2377,1.2389,1.2385,1.2387,1.2392,1.239,1.2395,1.2393,1.2402,1.2402,1.2398,1.2402,1.2394,1.2404,1.2401,1.24,1.24,1.2375,1.2369,1.2352,1.2384,1.2384,1.2383,0,1.2362,1.2364,1.2355,1.2362,1.2361,1.2357,1.2359,1.2357,1.2361,1.2364,1.2365,1.2372,1.2368,1.2378,1.2372,1.2379,1.2378,1.238,1.238,1.238,1.2391,1.2374,1.2347,1.2345,1.238,1.238,1.2381,0,1.2339,1.2339,1.2334,1.2335,1.2343,1.234,1.2343,1.2347,1.2347,1.2348,1.2348,1.2348,1.2348,1.2348,1.2356,1.2362,1.2349,1.236,1.2351,1.2351,1.2348,1.2348,1.232,1.2347,1.2347,1.2347,1.2348,0,1.2316,1.231,1.2324,1.232,1.2314,1.2325,1.2318,1.2322,1.2326,1.2323,1.2334,1.2331,1.2341,1.234,1.2345,1.234,1.2339,1.2342,1.2343,1.2341,1.2341,1.234,1.2342,1.2347,1.2347,1.2347,1.2347,0,1.2289,1.2298,1.2293,1.2302,1.2304,1.2299,1.2306,1.2303,1.2308,1.2305,1.2305,1.2314,1.2312,1.232,1.232,1.2324,1.2315,1.2319,1.2314,1.2315,1.2307,1.2308,1.2278,1.2275,1.2304,1.2304,1.2304,0,1.2274,1.227,1.2278,1.2278,1.2281,1.228,1.228,1.229,1.229,1.2295,1.2291,1.2291,1.2292,1.2289,1.2295,1.2295,1.2299,1.2288,1.2299,1.2297,1.2299,1.2299,1.2299,1.2286,1.2286,1.2285,1.2285,0,1.2246,1.2251,1.2251,1.2254,1.2254,1.2256,1.2259,1.2258,1.2269,1.2269,1.2268,1.2269,1.2269,1.2269,1.2271,1.2273,1.2281,1.2282,1.228,1.2277,1.2275,1.2276,1.2308,1.2282,1.2283,1.2283,1.2283,1.2283,1.2224,1.2222,1.2227,1.2228,1.2231,1.2234,1.2232,1.2238,1.2238,1.224,1.2246,1.2245,1.2249,1.2252,1.2254,1.2253,1.2258,1.2255,1.2254,1.2253,1.2252,1.2276,1.2253,1.2253,1.2253,1.2253,1.2253,0,1.2197,1.2202,1.2202,1.2207,1.2207,1.2216,1.2219,1.2219,1.2218,1.2221,1.2222,1.2222,1.2222,1.2229,1.2229,1.2227,1.2231,1.2227,1.2227,1.2228,1.2247,1.2249,1.2224,1.2224,1.2224,1.2224,1.2224,1.2224,1.2183,1.2179,1.2185,1.2183,1.2187,1.2187,1.2188,1.2191,1.2194,1.2194,1.2194,1.2199,1.2204,1.2205,1.2206,1.2208,1.2207,1.2202,1.2205,1.2224,1.2226,1.2229,1.2231,1.2202,1.2202,1.2186,1.2186,1.2186]}]]